Location: ??????????
(44.2167°N, 135.5333°E)
Time: 14:50:18
(UTC+00:00)

Meteor 1-23 Rocket - Pass Details

Date: 15 June 2025
Orbit: 838 x 885 km, 81.3° (Epoch: 15 July)

Event Time Altitude Azimuth Distance (km) Brightness Sun altitude
Exits shadow 12:55:19 17° 194° (SSW) 2,022 5.8 -16.8°
Maximum altitude 12:59:44 80° 280° (W) 860 4.2 -17.2°
Drops below altitude 10° 13:05:23 10° 8° (N) 2,484 7.4 -17.7°
Sets 13:07:49 0° 10° (N) 3,430 8.3 -17.9°
